Regional Weather Roundup
Issued by NWS Green Bay, WI

Home | Current Version | Previous Version | Graphics & Text | Print | Product List | Glossary Off
Versions: 1 2 3 4 5 6 7 8 9 10 11 12 13 14 15 16 17 18 19 20 21 22 23 24 25 26 27 28 29 30 31 32 33 34 35 36 37 38 39 40 41 42 43 44 45 46 47 48 49 50

000
ASUS43 KGRB 252110
RWRGRB

NORTH-CENTRAL AND NORTHEAST WISCONSIN REGIONAL WEATHER ROUNDUP
NATIONAL WEATHER SERVICE GREEN BAY WI
300 PM CST SUN JAN 25 2015

WIZ005-009-010>012-018-019-252200-
NORTH CENTRAL WISCONSIN

CITY           SKY/WX    TMP DP  RH WIND       PRES   REMARKS
IRONWOOD       CLOUDY    18   7  62 CALM      30.00S
MANITOWISH WTR CLOUDY    18   4  55 CALM      29.99S
ARBOR VITAE    CLOUDY    21   7  54 CALM      29.99S
EAGLE RIVER    MOSUNNY   18   3  52 N3        29.98S
LAND O LAKES   CLOUDY    19   6  55 CALM      29.99F
RHINELANDER    CLOUDY    18   5  57 E5        29.99R
PHILLIPS       CLOUDY    19   6  55 CALM      29.99S
ANTIGO         PTSUNNY   19   6  58 N5        29.98R
TOMAHAWK       CLOUDY    20   6  52 CALM      30.00R
MERRILL        MOSUNNY   22   5  49 NE3       29.99S
$$

WIZ013-073-252200-
NORTHEAST WISCONSIN

CITY           SKY/WX    TMP DP  RH WIND       PRES   REMARKS
IRON MOUNTAIN  MOSUNNY   20   6  55 N7        30.02R
MARINETTE      SUNNY     19   5  53 E10       30.05S WCI   8
OCONTO         SUNNY     20   8  58 CALM      30.05S
$$

WIZ017-030-035>037-045-252200-
CENTRAL WISCONSIN

CITY           SKY/WX    TMP DP  RH WIND       PRES   REMARKS
MEDFORD        CLOUDY    20   8  59 NE3       29.99R
WAUSAU         MOSUNNY   21   6  52 NE6       29.99R
MOSINEE        NOT AVBL
MARSHFIELD     CLOUDY    21   8  57 E7        30.00R
WISC RAPIDS    SUNNY     21   7  54 E10       30.03R WCI  10
STEVENS POINT  SUNNY     19   6  55 E7        30.02R
WAUPACA        MOSUNNY   25   9  52 NE8       30.03R
SHAWANO        SUNNY     23   9  54 E6        30.05R
CLINTONVILLE   SUNNY     23   9  54 NE7       30.04R
$$

WIZ038-039-048-051-252200-
FOX VALLEY

CITY           SKY/WX    TMP DP  RH WIND       PRES   REMARKS
NWS GREEN BAY  SUNNY     21  11  65 NE18      30.03R WCI   6
APPLETON       PTSUNNY   21   9  58 NE14G22   30.01R WCI   8
OSHKOSH        CLOUDY    20  11  68 N17       30.00R WCI   5
FOND DU LAC    SUNNY     22  13  68 N16       29.99R WCI   8
$$

WIZ022-050-052-252200-
EAST CENTRAL WISCONSIN

CITY           SKY/WX    TMP DP  RH WIND       PRES   REMARKS
STURGEON BAY   PTSUNNY   18   9  68 N18       30.05S WCI   2
MANITOWOC      MOSUNNY   23  13  65 NE15G21   30.01R
SHEBOYGAN      MOSUNNY   23  11  60 NE22      29.98R WCI   8
$$

LMZ563-521-522-541>543-252200-
LAKESHORE

STATION/POSITION TIME  TEMP    WIND        PRES    VSBY  WAVE
                       AIR SEA DIR/SP/G                  HT/PER
                 (UTC) (F)     (DEG/KT/KT) (MB)    (MI)  (FT/S)
SHEBOYGAN LKSHOR 2100   23      30/ 23/ 26 1016.5R
KEWAUNEE LKSHORE 2100   21      40/ 18/ 21 1015.8R
NORTHPORT PIER   2100   18     340/  7/ 11 1018.3R
SISTER BAY LKSHO 2000   21      30/ 11/ 15   N/A
CHAMBERS ISLAND  2100   17      30/  9/ 11 1018.3R
MENOMINEE LKSHOR 2100   18      50/ 10/ 12 1018.5F
$$


USA.gov is the U.S. government's official web portal to all federal, state and local government web resources and services.